Find ANTELSAT

NORAD ID: 40034 Int'l Des: 2014-033 Owner: FING/ANTEL Country: UY operational
LEOCIRCULARRETROGRADESSO

实时位置

正在加载3D地球...

关于 ANTELSAT

正在加载描述...

即将过境

Passes for default location (London). Set your location on the main map for personalized predictions.

高度历史

Loading altitude history...

两行轨道根数

1 40034U 14033AA 26106.37892079 .00002468 00000-0 25477-3 0 9990
2 40034 97.7701 263.1098 0042310 260.6392 99.0041 14.90456214636601
Epoch: Apr 16, 2026 • Age: 18 hours

当前状态

高度 637.5 km
速度 7.53 km/s
星下点 78.81°N, 126.99°W
发射日期 Jun 19, 2014
运行时间 11.8 years
类型 other

技术详情

分类 Payload
质量 2.00 kg
干质量 2.00 kg
总质量 2.00 kg
长度 0.20 m
直径 0.10 m
跨度 0.20 m
形状 Box+boom
制造商 FING
平台类型 Cubesat 2U
阶段状态 In Orbit
所有者/国家 FING/ANTEL/UY

Most Searched